Location: Chippewa Lake
(41.0698°N, 81.9010°W)
Time: 02:10:56
(UTC+00:00)

COSMOS 2441 - Pass Details

Date: 09 May 2021
Orbit: 708 x 731 km, 98.1° (Epoch: 24 June)

Event Time Altitude Azimuth Distance (km) Brightness Sun altitude
Rises 08:42:23 0° 11° (NNE) 3,163 8.6 -15.6°
Reaches altitude 10° 08:44:40 10° 11° (N) 2,238 7.7 -15.3°
Maximum altitude 08:49:35 82° 285° (WNW) 743 4.3 -14.6°
Enters shadow 08:53:36 16° 198° (SSW) 1,869 6.0 -14.0°
